Location: Newark
(33.9439°N, 86.0617°W)
Time: 17:47:21
(UTC+00:00)

ISS - Visible Passes

Search period start: 21 January 2020 00:00
Search period end: 31 January 2020 00:00
Orbit: 415 x 421 km, 51.6° (Epoch: 22 January)

Date Brightness Start Highest point End Pass type
(mag) Time Alt. Az. Time Alt. Az. Time Alt. Az.
21 Jan -1.1 01:09:56 10° WNW 01:11:35 17° NW 01:11:35 17° NW visible
22 Jan -2.0 00:21:16 10° W 00:24:11 27° NW 00:25:52 18° N visible
22 Jan -3.0 23:32:52 10° WSW 23:36:08 48° NW 23:39:24 10° NE visible
24 Jan -1.1 00:23:52 10° NW 00:25:19 12° NNW 00:26:46 10° N visible
24 Jan -1.5 23:34:42 10° WNW 23:37:06 18° NNW 23:39:31 10° NNE visible
